Miscellaneous Hydrologic Data Report
Issued by NWS (Baltimore/Washington) Sterling, VA
1 of 52 available versions  First Miscellaneous Hydrologic Data Report Previous Miscellaneous Hydrologic Data Report  Print this page Close this Window


294
ASUS41 KLWX 240311
RWRLWX

REGIONAL WEATHER ROUNDUP
NATIONAL WEATHER SERVICE BALTIMORE MD/WASHINGTON DC
1100 PM EDT FRI JUN 23 2017

Note: "FAIR" indicates few or no clouds below 12,000 feet
with no significant weather and/or obstructions to visibility.
 TC=TEMPERATURE CELSIUS

 * =Non NWS site. Station does not report precipitation (e.g. rain,
    snow, etc.), thunder, or fog.

DCZ001-MDZ009-015-VAZ040>042-051-053>054-240400-
WASHINGTON METRO

CITY           SKY/WX    TMP DP  RH WIND       PRES   REMARKS
WASHINGTON NAT CLOUDY    84  74  71 S13       29.70F HX  91
DULLES         PTCLDY    81  71  71 S15       29.69F
ANDREWS AFB    CLOUDY    82  71  71 S14       29.71F
FT BELVOIR     MOCLDY    82  73  72 S6        29.70F
QUANTICO       PTCLDY    84  75  74 SW14G21   29.72F HX  92
COLLEGE PARK*  CLOUDY    83  72  70 S6        29.70S
LEESBURG*      MOCLDY    81  73  78 S6        29.70F
MANASSAS*      CLOUDY    81  73  76 S10       29.71S
GAITHERSBURG*  MOCLDY    81  72  74 S9        29.72F

$$

MDZ006>007-011-014-240400-
BALTIMORE METRO

CITY           SKY/WX    TMP DP  RH WIND       PRES   REMARKS
BWI AIRPORT    CLOUDY    83  74  74 S8        29.69F
MD SCIENCE CTR   N/A     86  74  67 MISG      29.69S HX  94
MARTIN STATE   CLOUDY    84  77  79 S9G16     29.70F HX  94
ANNAPOLIS      MOCLDY    83  75  77 S8        29.70F HX  90
FORT MEADE*    CLOUDY    79  72  78 SW6       29.72F

$$

MDZ012-015-019>023-240400-
MARYLAND EASTERN SHORE

CITY           SKY/WX    TMP DP  RH WIND       PRES   REMARKS
OCEAN CITY     PTCLDY    76  73  91 S8        29.78S
SALISBURY      PTCLDY    82  75  79 SW14      29.76F
BAY BRIDGE AP* PTCLDY    84  73  70 S10G18    29.71S HX  91
CAMBRIDGE*     CLEAR     82  73  74 S9G15     29.75S
EASTON*        PTCLDY    84  72  66 SW14      29.77S HX  90

$$

MDZ017>025-240400-
SOUTHERN MARYLAND

CITY           SKY/WX    TMP DP  RH WIND       PRES   REMARKS
PATUXENT RIVER MOCLDY    83  72  69 SW13      29.74S
ST INIGOES     PTCLDY    84  72  67 S12       29.75S
LEONARDTOWN*   CLOUDY    81  70  69 S7        29.76F

$$

MDZ003>005-240400-
NORTH CENTRAL MARYLAND

CITY           SKY/WX    TMP DP  RH WIND       PRES   REMARKS
FREDERICK*     NOT AVBL
HAGERSTOWN APT LGT RAIN  74  72  93 SE6       29.70S FOG
WESTMINSTER*   CLOUDY    82  73  74 W9G17     29.71S

$$

MDZ501>502-240400-
WESTERN MARYLAND

CITY           SKY/WX    TMP DP  RH WIND       PRES   REMARKS
OAKLAND*       NOT AVBL
CUMBERLAND*    CLOUDY    72  72 100 N5        29.74R

$$

VAZ025>031-240400-
SHENANDOAH VALLEY

CITY           SKY/WX    TMP DP  RH WIND       PRES   REMARKS
WINCHESTER*    CLOUDY    73  68  83 SE5       29.70S
FRONT ROYAL*   CLOUDY    79  70  73 CALM      29.69S
LURAY*         PTCLDY    77  70  78 S5        29.72S
NEW MARKET*    CLOUDY    80  69  70 SW7       29.70S
STAUNTON*      CLOUDY    79  67  67 S10G16    29.76F
WAYNESBORO*    CLOUDY    79  68  69 S12G25    29.78S

$$

WVZ021-048>050-054>055-240400-
EASTERN WEST VIRGINIA PANHANDLE

CITY           SKY/WX    TMP DP  RH WIND       PRES   REMARKS
MARTINSBURG    MOCLDY    74  70  87 E3        29.69S
PETERSBURG*    LGT RAIN  80  69  69 S5        29.71R

$$

VAZ036>039-050-240400-
CENTRAL FOOTHILLS

CITY           SKY/WX    TMP DP  RH WIND       PRES   REMARKS
CHARLOTTESVILL CLOUDY    82  70  66 S17G25    29.73F
CULPEPER*      CLOUDY    82  73  72 S9        29.71F
ORANGE*        CLOUDY    79  70  73 S10       29.73S
GORDONSVILLE*  CLOUDY    81  72  74 SW12G17   29.73S
WARRENTON*     PTCLDY    83  69  62 S7G16     29.71S

$$

VAZ055>057-240400-
NORTH AND CENTRAL PIEDMONT

CITY           SKY/WX    TMP DP  RH WIND       PRES   REMARKS
FREDERICKSBRG* PTCLDY    83  72  69 S8G17     29.72F
STAFFORD*      MOCLDY    81  72  74 S8G16     29.77S

$$

NCZ024-NYZ072-PAZ021-071-VAZ022-071-240400-
OTHER REGIONAL OBSERVATIONS

CITY           SKY/WX    TMP DP  RH WIND       PRES   REMARKS
NEW YORK CITY  CLOUDY    77  74  90 VRB5      29.66F
PHILADELPHIA   PTCLDY    83  72  69 S13G22    29.67F
PITTSBURGH     LGT RAIN  68  68 100 CALM      29.71S
ROANOKE        CLOUDY    82  66  58 SW15G23   29.79F
RICHMOND       CLOUDY    82  71  69 S14       29.78S
RALEIGH        PTCLDY    83  72  69 SW14      29.87R

$$

ANZ530>537-240400-
MARINE OBSERVATIONS

STATION/POSITION TIME  TEMP    WIND        PRES
                       AIR SEA DIR/SP/G
                 (UTC) (F)     (DEG/KT/KT) (MB)
THOMAS PT LIGHT  0300   82 78  200/ 18/ 19   N/A
BALT KEY BRIDGE  0242   84     200/  9/ 12 1005.1S
COVE POINT       0242   83     210/ 13/ 16 1007.8R
LEWISETTA        0242   83 80  220/ 12/ 14 1007.6S
SOLOMONS ISLAND  0242   82 78  200/ 11/ 14   N/A
PINEY POINT      0242          230/ 14/ 18   N/A

$$



Close this window


The National Weather Service prepares its forecasts and other services in collaboration with agencies like the US Geological Survey, US Bureau of Reclamation, US Army Corps of Engineers, Natural Resource Conservation Service, National Park Service, ALERT Users Group, Bureau of Indian Affairs, and many state and local emergency managers across the country. For details, please click here.

National Weather Service
(Baltimore/Washington) Sterling Weather Forecast Office
43858 Weather Service Rd.
Sterling, VA 20166
(703) 996-2200
Page last modified: 24-Jun-2017 3:11 AM
Disclaimer
Credits
Glossary
Privacy Policy
About Us
Career Opportunities